[[{"header":{"parameterUnit":"m.s-1","parameterCategory":1,"la1":30.2992,"la2":30.254,"lo1":-89.0895,"lo2":-89.0443,"dy":0.0025,"dx":0.0025,"nx":19,"ny":19,"refTime":"2026-03-17T03:00:00:Z","depth":0,"parameterNumber":2,"parameterNumberName":"U-component_of_WINDS"},"data":[0,0,0,0.0226,0.0225,0.0207,0.0206,0.0179,0.0179,0,0,0,0,0,0,0,0,0,0,0,0.023,0.023,0.0226,0.0225,0.0207,0.0206,0.0179,0.0179,0,0,0,0,0,0,0,0,0,0,0,0.023,0.023,0.023,0.0225,0.0207,0.0206,0.0179,0.0194,0,0,0,0,0,0,0,0,0,0,0.0213,0.0217,0.023,0.023,0.0225,0.0207,0.0206,0.0195,0.0193,0.0187,0,0.0181,0,0.018,0.0177,0.0177,0,0,0,0.0225,0.0218,0.0214,0.023,0.0225,0.0207,0.0215,0.0194,0.0192,0.0184,0.0181,0.018,0.0179,0.0177,0.0177,0.0138,0.0138,0,0,0.0226,0.0226,0.0215,0.0213,0.0217,0.0216,0.0214,0.0193,0.0189,0.0181,0.0179,0.0179,0.0177,0.0176,0.0138,0.0138,0,0,0,0.0229,0.0227,0.0223,0.0214,0.0211,0.0215,0.0214,0.019,0.0189,0.0179,0.0179,0.0176,0.0176,0.0138,0.0138,0.0127,0,0,0,0.023,0.0229,0.0224,0.0223,0.0211,0.02,0.0211,0.019,0.0188,0.0179,0.0176,0.0176,0.0139,0.0138,0.0128,0.0122,0,0,0,0.0232,0.0229,0.0226,0.0223,0.0216,0.0201,0.0198,0.019,0.0188,0.0177,0.0176,0.0139,0.0138,0.0129,0.0123,0.011,0,0,0,0.0233,0.0217,0.0226,0.0208,0.0216,0.0195,0.0199,0.0183,0.0173,0.0176,0.0139,0.0138,0.0129,0.0124,0.0111,0.0099,0.0094,0,0,0.0213,0.0215,0.0204,0.0211,0.0189,0.0198,0.0174,0.0164,0.0163,0.0146,0.0145,0.0128,0.0123,0.0111,0.007,0.0066,0,0,0,0.0198,0.019,0.0184,0.0174,0.0167,0.0159,0.0154,0.015,0.0135,0.0155,0.0121,0.0118,0.011,0.0104,0.0101,0.0094,0.0136,0.0136,0.0136,0.0168,0.0167,0.0149,0.0146,0.0136,0.013,0.0122,0.0115,0.0118,0.011,0.0104,0.008,0.0073,0.007,0.0063,0.0099,0.0099,0.0099,0.0099,0.0136,0.0124,0.0128,0.0111,0.011,0.0095,0.0088,0.009,0.0075,0.0084,0.0078,0.0087,0.0066,0.0059,0.0098,0.0098,0.0098,0.0098,0.0098,0.0116,0.011,0.0106,0.0091,0.0079,0.0076,0.0061,0.0061,0.0061,0.0054,0.0047,0.0047,0.0046,0.0051,0.0051,0.0051,0.0051,0.0051,0.0051,0.0095,0.0091,0.0079,0.0069,0.0062,0.0052,0.0045,0.0038,0.0029,0.003,0.003,0.0032,0.0065,0.0072,0.0049,0.005,0.005,0.005,0.005,0.0061,0.0068,0.005,0.0043,0.003,0.0017,0.0017,0.0001,-0.0005,-0.0013,-0.0009,0.0016,0.0018,0.002,0.0026,-0.0008,-0.0008,-0.0008,-0.0008,0.0042,0.0043,0.0023,0.0011,-0.0,-0.0002,-0.0026,-0.0032,-0.0038,-0.0042,-0.0037,-0.0029,-0.0026,-0.0026,-0.0023,-0.0018,-0.0061,-0.0062,-0.0062,0.002,0.0019,0.0,-0.0004,-0.0014,-0.0024,-0.0047,-0.0062,-0.0067,-0.0064,-0.0047,-0.0044,-0.0031,-0.0026,-0.0024,-0.0018,-0.0008,0,0]},{"header":{"parameterUnit":"m.s-1","parameterCategory":1,"la1":30.2992,"la2":30.254,"lo1":-89.0895,"lo2":-89.0443,"dy":0.0025,"dx":0.0025,"nx":19,"ny":19,"refTime":"2026-03-17T03:00:00:Z","depth":0,"parameterNumber":3,"parameterNumberName":"V-component_of_WINDS"},"data":[0,0,0,3.164,3.1641,3.1651,3.1651,3.1677,3.1677,0,0,0,0,0,0,0,0,0,0,0,3.1647,3.1648,3.164,3.1641,3.1651,3.1651,3.1677,3.1677,0,0,0,0,0,0,0,0,0,0,0,3.1647,3.1648,3.1649,3.1641,3.1651,3.1651,3.1677,3.1664,0,0,0,0,0,0,0,0,0,0,3.1651,3.1669,3.1648,3.1649,3.1641,3.1651,3.1651,3.1663,3.1665,3.1678,0,3.1696,0,3.1687,3.168,3.168,0,0,0,3.1633,3.1668,3.1661,3.1649,3.1641,3.1651,3.1644,3.1664,3.1666,3.1681,3.1696,3.1696,3.1687,3.168,3.168,3.179,3.179,0,0,3.1632,3.1655,3.166,3.1663,3.1665,3.1644,3.1644,3.1665,3.1682,3.1696,3.1697,3.1688,3.168,3.1681,3.1789,3.179,0,0,0,3.1636,3.1655,3.1647,3.1662,3.1663,3.1644,3.1645,3.1681,3.1677,3.1697,3.1688,3.1681,3.1681,3.1788,3.1789,3.1853,0,0,0,3.1635,3.1657,3.1647,3.1661,3.1663,3.1673,3.1661,3.1675,3.1677,3.1688,3.1681,3.1682,3.1787,3.1788,3.1849,3.1879,0,0,0,3.1643,3.1657,3.1663,3.1662,3.1668,3.1672,3.1669,3.1675,3.1672,3.168,3.1682,3.1786,3.1788,3.1846,3.1874,3.1912,0,0,0,3.1658,3.1721,3.1664,3.1731,3.1668,3.1713,3.1668,3.17,3.1715,3.1681,3.1787,3.1789,3.1845,3.187,3.1909,3.1947,3.1966,0,0,3.175,3.1733,3.1771,3.172,3.178,3.1709,3.1778,3.1771,3.1751,3.1777,3.1779,3.1851,3.1873,3.1911,3.2068,3.2084,0,0,0,3.1807,3.1834,3.1845,3.186,3.1856,3.1853,3.1833,3.1829,3.185,3.177,3.1876,3.1888,3.191,3.1927,3.194,3.1955,3.1799,3.1799,3.1798,3.1969,3.194,3.1998,3.1969,3.1984,3.1961,3.1969,3.196,3.1927,3.1952,3.1959,3.2058,3.2079,3.2089,3.2105,3.1979,3.198,3.198,3.198,3.2099,3.213,3.2083,3.2123,3.209,3.2122,3.2101,3.2076,3.2099,3.2051,3.2069,3.2017,3.2106,3.2119,3.1984,3.1984,3.1983,3.1983,3.1982,3.2199,3.2209,3.2204,3.222,3.2236,3.2204,3.2228,3.2198,3.217,3.2187,3.2188,3.2187,3.218,3.219,3.2191,3.2191,3.2191,3.2192,3.2192,3.2305,3.2297,3.2321,3.232,3.2323,3.2325,3.23,3.2302,3.2297,3.2272,3.2272,3.2234,3.2122,3.2093,3.2197,3.2196,3.2195,3.2195,3.2194,3.2443,3.2406,3.2444,3.2447,3.2441,3.2456,3.2418,3.2424,3.2422,3.2433,3.2391,3.2314,3.2294,3.2284,3.2259,3.24,3.24,3.24,3.24,3.2525,3.2512,3.2542,3.2549,3.2553,3.2521,3.256,3.254,3.2514,3.251,3.2485,3.2451,3.2442,3.2427,3.2413,3.2389,3.256,3.256,3.2561,3.2606,3.2592,3.2633,3.2607,3.2599,3.2592,3.2627,3.2634,3.2597,3.2566,3.2505,3.2498,3.2442,3.2426,3.2392,3.2372,3.2328,0,0]}]]